Weather History for Adelaide, SA

Change the Weather History Date:

Friday, March 8, 2013

  Actual Average Record
Temperature  
Mean Temperature 85 °F -  
Max Temperature 95 °F 76 °F 98 °F (2008)
Min Temperature 75 °F 57 °F 50 °F (2004)
Cooling Degree Days 20    
Growing Degree Days 35 (Base 50)    
Moisture  
Dew Point 60 °F    
Average Humidity 42    
Maximum Humidity 69    
Minimum Humidity 16    
Precipitation  
Precipitation 0.00 in 0.03 in - ()
Sea Level Pressure  
Sea Level Pressure 29.91 in    
Wind  
Wind Speed 7 mph ()    
Max Wind Speed 17 mph    
Max Gust Speed 26 mph    
Visibility 19.0 miles    
Events      
Averages and records for this station are not official NWS values.
T = Trace of Precipitation, MM = Missing Value Source: Averaged Metar Reports

Daily Weather History Graph

Daily Weather History Graph

Search for Another Location

Airport:

Trip Planner

Search our weather history database for the weather conditions in past years. The results will help you decide how hot, cold, wet, or windy it might be!

Date:

Astronomy

Mar. 08, 2013 Rise Set
Actual Time 7:08 AM ACDT 7:44 PM ACDT
Civil Twilight 6:43 AM ACDT 8:09 PM ACDT
Nautical Twilight 6:13 AM ACDT 8:39 PM ACDT
Astronomical Twilight 5:42 AM ACDT 9:10 PM ACDT
Moon 3:05 AM ACDT (3/8) 5:06 PM ACDT (3/8)
Length of Visible Light 13h 26m
Length of Day
12h 35m
Waning Crescent, 17% of the Moon is Illuminated
Mar 8
Waning Crescent
Mar 12
New
Mar 20
First Quarter
Mar 27
Full
Apr 3
Last Quarter

Hourly Weather History & Observations

Time (ACDT) Temp. Heat Index Dew Point Humidity Pressure Visibility Wind Dir Wind Speed Gust Speed Precip Events Conditions
12:00 AM 86 °F - 59 °F 30% 29.94 in 25 mi NNE 6.9 mph - -   Partly Cloudy
12:00 AM 86.0 °F 85.4 °F 59.0 °F 40% 29.92 in - NNE 6.9 mph - N/A   Clear
12:30 AM 82.4 °F 83.4 °F 62.6 °F 51% 29.92 in - West 5.8 mph - N/A   Clear
1:00 AM 82.4 °F 83.4 °F 62.6 °F 51% 29.92 in - SSW 1.2 mph - N/A   Clear
1:30 AM 82 °F - 65 °F 48% 29.93 in - South 5.8 mph - -  
1:30 AM 82.4 °F 84.6 °F 66.2 °F 58% 29.92 in - South 5.8 mph - N/A   Clear
2:00 AM 82.4 °F 83.9 °F 64.4 °F 54% 29.92 in - SSW 3.5 mph - N/A   Clear
2:30 AM 80.6 °F 82.7 °F 66.2 °F 61% 29.92 in - West 4.6 mph - N/A   Clear
3:00 AM 81 °F - 65 °F 50% 29.93 in 25 mi West 8.1 mph - -   Partly Cloudy
3:00 AM 80.6 °F 82.7 °F 66.2 °F 61% 29.92 in - West 8.1 mph - N/A   Clear
3:30 AM 80.6 °F 82.7 °F 66.2 °F 61% 29.92 in - SSW 4.6 mph - N/A   Clear
4:00 AM 80.6 °F 81.8 °F 62.6 °F 54% 29.92 in - South 6.9 mph - N/A   Clear
4:30 AM 80 °F - 64 °F 48% 29.94 in - South 4.6 mph - -  
4:30 AM 80.6 °F 82.3 °F 64.4 °F 58% 29.92 in - South 4.6 mph - N/A   Clear
5:00 AM 78.8 °F - 68.0 °F 69% 29.92 in - SW 9.2 mph - N/A   Clear
5:30 AM 78.8 °F - 64.4 °F 61% 29.92 in - SSE 5.8 mph - N/A   Clear
6:00 AM 78 °F - 65 °F 56% 29.94 in 25 mi East 5.8 mph - -   Partly Cloudy
6:00 AM 77.0 °F - 64.4 °F 65% 29.92 in - East 5.8 mph - N/A   Clear
6:30 AM 78.8 °F - 64.4 °F 61% 29.92 in - East 4.6 mph - N/A   Clear
7:00 AM 78.8 °F - 62.6 °F 57% 29.92 in - East 6.9 mph - N/A   Clear
7:30 AM 78 °F - 62 °F 47% 29.94 in - East 8.1 mph - -  
7:30 AM 78.8 °F - 60.8 °F 54% 29.92 in - East 8.1 mph - N/A   Clear
8:00 AM 80.6 °F 81.5 °F 60.8 °F 51% 29.95 in - NE 3.5 mph - N/A   Clear
8:30 AM 84.2 °F 83.5 °F 57.2 °F 40% 29.95 in - NE 5.8 mph - N/A   Clear
9:00 AM 86 °F - 56 °F 26% 29.96 in 25 mi NNE 9.2 mph - -   Scattered Clouds
9:00 AM 86.0 °F 84.9 °F 57.2 °F 37% 29.95 in - NNE 9.2 mph - N/A   Clear
9:30 AM 86.0 °F 84.9 °F 57.2 °F 37% 29.95 in - NE 10.4 mph - N/A   Clear
10:00 AM 87.8 °F 86.1 °F 55.4 °F 33% 29.95 in - NE 10.4 mph - N/A   Clear
10:30 AM 89 °F - 56 °F 22% 29.96 in - North 8.1 mph - -  
10:30 AM 89.6 °F 87.7 °F 55.4 °F 31% 29.95 in - North 8.1 mph - N/A   Clear
11:00 AM 93.2 °F 91.3 °F 55.4 °F 28% 29.95 in - North 6.9 mph - N/A   Clear
11:30 AM 93.2 °F 91.3 °F 55.4 °F 28% 29.95 in - North 12.7 mph - N/A   Clear
12:00 PM 94 °F - 53 °F 16% 29.95 in 25 mi NNE 12.7 mph - -   Partly Cloudy
12:00 PM 93.2 °F 90.8 °F 53.6 °F 26% 29.95 in - NNE 12.7 mph - N/A   Clear
12:30 PM 95.0 °F 92.7 °F 53.6 °F 25% 29.92 in - North 11.5 mph - N/A   Clear
1:00 PM 93.2 °F 90.8 °F 53.6 °F 26% 29.92 in - North 8.1 mph - N/A   Clear
1:30 PM 94 °F - 57 °F 20% 29.92 in - West 10.4 mph - -  
1:30 PM 93.2 °F 91.9 °F 57.2 °F 30% 29.92 in - West 10.4 mph - N/A   Clear
2:00 PM 95.0 °F 94.4 °F 59.0 °F 30% 29.89 in - West 10.4 mph - N/A   Clear
2:30 PM 95.0 °F 93.7 °F 57.2 °F 28% 29.89 in - West 15.0 mph - N/A   Clear
3:00 PM 94 °F - 55 °F 18% 29.89 in 19 mi West 15.0 mph - -   Partly Cloudy
3:00 PM 93.2 °F 91.3 °F 55.4 °F 28% 29.89 in - West 15.0 mph - N/A   Clear
3:30 PM 93.2 °F 91.9 °F 57.2 °F 30% 29.86 in - SW 11.5 mph - N/A   Clear
4:00 PM 89.6 °F 88.1 °F 57.2 °F 33% 29.86 in - SSW 10.4 mph - N/A   Clear
4:30 PM 92 °F - 60 °F 24% 29.86 in - South 8.1 mph - -  
4:30 PM 93.2 °F 92.6 °F 59.0 °F 32% 29.86 in - South 8.1 mph - N/A   Clear
4:38 PM 84.2 °F 86.6 °F 66.2 °F 55% 29.86 in - SW 12.7 mph 26.5 mph N/A   Clear
5:00 PM 84.2 °F 86.6 °F 66.2 °F 55% 29.86 in - SW 16.1 mph - N/A   Clear
5:30 PM 86.0 °F 86.1 °F 60.8 °F 43% 29.86 in - SW 17.3 mph - N/A   Clear
6:00 PM 86 °F - 61 °F 33% 29.87 in 19 mi SW 13.8 mph - -   Partly Cloudy
6:00 PM 86.0 °F 86.1 °F 60.8 °F 43% 29.86 in - SW 13.8 mph - N/A   Clear
6:30 PM 82.4 °F 83.9 °F 64.4 °F 54% 29.86 in - SW 12.7 mph - N/A   Clear
7:00 PM 84.2 °F 84.4 °F 60.8 °F 45% 29.86 in - South 10.4 mph - N/A   Clear
7:30 PM 85 °F - 60 °F 32% 29.88 in - South 6.9 mph - -  
7:30 PM 84.2 °F 83.8 °F 59.0 °F 42% 29.86 in - South 6.9 mph - N/A   Clear
8:00 PM 82.4 °F 84.6 °F 66.2 °F 58% 29.86 in - SSW 4.6 mph - N/A   Clear
8:30 PM 84.2 °F 83.5 °F 57.2 °F 40% 29.89 in - SE 10.4 mph - N/A   Clear
9:00 PM 83 °F - 58 °F 32% 29.91 in 19 mi SE 10.4 mph - -   Partly Cloudy
9:00 PM 84.2 °F 83.5 °F 57.2 °F 40% 29.89 in - SE 10.4 mph - N/A   Clear
9:30 PM 82.4 °F 81.7 °F 55.4 °F 39% 29.89 in - SE 9.2 mph - N/A   Clear
10:00 PM 82.4 °F 82.0 °F 57.2 °F 42% 29.89 in - South 9.2 mph - N/A   Clear
10:30 PM 80 °F - 57 °F 35% 29.92 in - SE 11.5 mph - -  
10:30 PM 80.6 °F 80.8 °F 57.2 °F 45% 29.92 in - SE 11.5 mph - N/A   Clear
11:00 PM 80.6 °F 80.8 °F 57.2 °F 45% 29.92 in - SE 10.4 mph - N/A   Clear
11:30 PM 78.8 °F - 57.2 °F 47% 29.92 in - SSE 6.9 mph - N/A   Clear